Location: Henham
(51.9333°N, 0.2500°E)
Time: 11:50:06
(UTC+00:00)

Cosmos 2016 Rocket - Pass Details

Date: 23 October 2019
Orbit: 947 x 1000 km, 83.0° (Epoch: 12 November)

Event Time Altitude Azimuth Distance (km) Brightness Sun altitude
Rises 18:51:38 0° 350° (N) 3,690 7.2 -19.5°
Reaches altitude 10° 18:54:10 10° 352° (N) 2,745 6.5 -19.9°
Maximum altitude 19:00:28 75° 78° (ENE) 1,030 3.9 -20.9°
Drops below altitude 10° 19:06:49 10° 164° (SSE) 2,757 6.1 -21.9°
Enters shadow 19:07:42 - 165° (SSE) 3,087 6.4 -22.0°
